Weather History for Cheboygan, MI

Change the Weather History Date:

Monday, November 18, 2013

  Actual Average (KPLN) Record (KPLN)
Temperature  
Mean Temperature 37 °F -  
Max Temperature 44 °F 41 °F 67 °F (1953)
Min Temperature 30 °F 27 °F 9 °F (1959)
Degree Days  
Heating Degree Days 28    
Moisture  
Dew Point 27 °F    
Average Humidity 71    
Maximum Humidity 91    
Minimum Humidity 60    
Precipitation  
Precipitation 0.00 in - - ()
Sea Level Pressure  
Sea Level Pressure 29.62 in    
Wind  
Wind Speed 23 mph (WNW)    
Max Wind Speed 32 mph    
Max Gust Speed 48 mph    
Visibility 9 miles    
Events Rain , Snow    
Averages and records for this station are not official NWS values.
T = Trace of Precipitation, MM = Missing Value Source: NWS Daily Summary

Daily Weather History Graph

Daily Weather History Graph

Search for Another Location

Airport:

Trip Planner

Search our weather history database for the weather conditions in past years. The results will help you decide how hot, cold, wet, or windy it might be!

Date:

Astronomy

Nov. 18, 2013 Rise Set
Actual Time 7:42 AM EST 5:04 PM EST
Civil Twilight 7:09 AM EST 5:36 PM EST
Nautical Twilight 6:33 AM EST 6:12 PM EST
Astronomical Twilight 5:58 AM EST 6:48 PM EST
Moon 6:05 PM EST (11/18) 8:30 AM EST (11/18)
Length of Visible Light 10h 27m
Length of Day
9h 22m
Full, 99% of the Moon is Illuminated
Nov 18
Full
Nov 25
Last Quarter
Dec 2
New
Dec 9
First Quarter
Dec 17
Full

Hourly Weather History & Observations

Time (EST) Temp. Windchill Dew Point Humidity Pressure Visibility Wind Dir Wind Speed Gust Speed Precip Events Conditions
12:16 AM 44.6 °F 34.6 °F 40.8 °F 87% 29.16 in 10.0 mi West 31.1 mph 40.3 mph N/A   Unknown
12:36 AM 44.2 °F 37.0 °F 39.9 °F 85% 29.18 in 10.0 mi West 16.1 mph 33.4 mph N/A   Overcast
12:56 AM 44.6 °F 36.4 °F 39.6 °F 82% 29.19 in 10.0 mi West 20.7 mph 34.5 mph N/A   Overcast
1:16 AM 43.9 °F 34.3 °F 39.4 °F 84% 29.20 in 4.0 mi West 26.5 mph 35.7 mph N/A Rain Light Rain
1:36 AM 42.1 °F 32.1 °F 39.2 °F 90% 29.21 in 5.0 mi West 25.3 mph 41.4 mph N/A Rain Light Rain
1:56 AM 41.7 °F 32.3 °F 39.4 °F 91% 29.23 in 10.0 mi West 21.9 mph 34.5 mph N/A   Mostly Cloudy
2:16 AM 41.0 °F 31.9 °F 38.5 °F 91% 29.25 in 5.0 mi West 19.6 mph 36.8 mph N/A   Overcast
2:36 AM 40.5 °F 31.5 °F 37.6 °F 89% 29.27 in 7.0 mi West 18.4 mph 35.7 mph N/A Rain Light Rain
2:56 AM 40.3 °F 30.2 °F 37.0 °F 88% 29.27 in 10.0 mi West 23.0 mph 33.4 mph N/A   Mostly Cloudy
3:17 AM 39.4 °F 29.5 °F 36.5 °F 89% 29.28 in 10.0 mi West 20.7 mph 29.9 mph N/A   Mostly Cloudy
3:36 AM 39.2 °F 29.8 °F 36.0 °F 88% 29.30 in 10.0 mi West 18.4 mph 35.7 mph N/A   Overcast
3:56 AM 38.8 °F 29.1 °F 35.1 °F 86% 29.31 in 10.0 mi West 19.6 mph 36.8 mph N/A   Overcast
4:16 AM 38.5 °F 26.9 °F 33.4 °F 82% 29.32 in 10.0 mi West 27.6 mph 42.6 mph N/A   Overcast
4:36 AM 39.4 °F 28.5 °F 30.2 °F 70% 29.33 in 10.0 mi West 25.3 mph 40.3 mph N/A   Overcast
4:56 AM 39.6 °F 27.5 °F 29.8 °F 68% 29.34 in 10.0 mi West 32.2 mph 40.3 mph N/A   Overcast
5:16 AM 39.2 °F 28.5 °F 29.5 °F 68% 29.36 in 10.0 mi West 24.2 mph 35.7 mph N/A   Overcast
5:36 AM 38.8 °F 27.6 °F 28.0 °F 65% 29.38 in 10.0 mi West 26.5 mph 38.0 mph N/A   Overcast
5:56 AM 38.5 °F 27.8 °F 27.5 °F 65% 29.38 in 10.0 mi West 23.0 mph 31.1 mph N/A   Overcast
6:16 AM 38.5 °F 26.2 °F 27.0 °F 63% 29.39 in 10.0 mi West 31.1 mph 39.1 mph N/A   Overcast
6:36 AM 38.3 °F 28.4 °F 27.3 °F 65% 29.40 in 10.0 mi WSW 19.6 mph 35.7 mph N/A   Overcast
6:56 AM 37.9 °F 27.9 °F 27.1 °F 65% 29.41 in 10.0 mi West 19.6 mph 34.5 mph N/A   Overcast
7:16 AM 37.8 °F 27.4 °F 27.0 °F 65% 29.42 in 10.0 mi West 20.7 mph 29.9 mph N/A   Overcast
7:36 AM 37.8 °F 26.8 °F 26.2 °F 63% 29.43 in 10.0 mi West 23.0 mph 35.7 mph N/A   Overcast
7:56 AM 37.8 °F 28.0 °F 25.9 °F 62% 29.44 in 10.0 mi West 18.4 mph 33.4 mph N/A   Overcast
8:16 AM 37.8 °F 27.1 °F 25.7 °F 62% 29.45 in 10.0 mi West 21.9 mph 33.4 mph N/A   Overcast
8:36 AM 37.8 °F 26.6 °F 25.2 °F 60% 29.46 in 10.0 mi West 24.2 mph 39.1 mph N/A   Mostly Cloudy
8:55 AM 37.8 °F 26.6 °F 25.3 °F 61% 29.48 in 10.0 mi West 24.2 mph 36.8 mph N/A   Mostly Cloudy
9:16 AM 36.9 °F 25.9 °F 26.6 °F 66% 29.49 in 7.0 mi West 21.9 mph 36.8 mph N/A   Mostly Cloudy
9:36 AM 36.9 °F 26.2 °F 25.5 °F 64% 29.50 in 10.0 mi West 20.7 mph 46.0 mph N/A   Mostly Cloudy
9:56 AM 36.9 °F 25.6 °F 25.3 °F 63% 29.52 in 7.0 mi West 23.0 mph 42.6 mph N/A Snow Light Snow
10:16 AM 36.5 °F 24.7 °F 25.5 °F 64% 29.53 in 10.0 mi West 25.3 mph 34.5 mph N/A   Mostly Cloudy
10:36 AM 36.5 °F 23.7 °F 24.8 °F 63% 29.54 in 10.0 mi West 29.9 mph 43.7 mph N/A   Scattered Clouds
10:56 AM 36.5 °F 24.2 °F 24.3 °F 61% 29.55 in 10.0 mi West 27.6 mph 44.9 mph N/A   Scattered Clouds
11:16 AM 35.6 °F 23.0 °F 26.6 °F 70% 29.56 in 10.0 mi West 27.6 mph 38.0 mph N/A   Scattered Clouds
11:36 AM 36.5 °F 24.0 °F 25.7 °F 65% 29.57 in 10.0 mi West 28.8 mph 39.1 mph N/A   Scattered Clouds
11:56 AM 36.0 °F 24.2 °F 24.1 °F 62% 29.58 in 10.0 mi West 24.2 mph 39.1 mph N/A   Scattered Clouds
12:16 PM 35.8 °F 23.4 °F 25.2 °F 65% 29.60 in 10.0 mi West 26.5 mph 35.7 mph N/A   Scattered Clouds
12:36 PM 34.7 °F 23.1 °F 25.9 °F 70% 29.61 in 4.0 mi West 21.9 mph 36.8 mph N/A Snow Light Snow
12:56 PM 34.9 °F 21.5 °F 25.2 °F 68% 29.62 in 10.0 mi West 29.9 mph 38.0 mph N/A   Mostly Cloudy
1:16 PM 34.3 °F 21.5 °F 24.3 °F 67% 29.65 in 2.0 mi WNW 26.5 mph 38.0 mph N/A Snow Light Snow
1:36 PM 32.5 °F 20.8 °F 27.3 °F 81% 29.66 in 2.0 mi West 19.6 mph 29.9 mph N/A Snow Light Snow
1:56 PM 33.8 °F 21.0 °F 26.6 °F 75% 29.68 in 7.0 mi WNW 25.3 mph 41.4 mph N/A Snow Light Snow
2:16 PM 34.3 °F 22.9 °F 26.4 °F 73% 29.69 in 10.0 mi WNW 20.7 mph 28.8 mph N/A   Scattered Clouds
2:36 PM 33.6 °F 23.3 °F 27.0 °F 77% 29.70 in 7.0 mi WNW 16.1 mph 33.4 mph N/A   Mostly Cloudy
2:56 PM 32.4 °F 20.6 °F 28.4 °F 85% 29.72 in 1.0 mi WNW 19.6 mph 25.3 mph N/A Snow Light Snow
3:16 PM 32.9 °F 22.8 °F 27.3 °F 80% 29.74 in 2.5 mi WNW 15.0 mph 26.5 mph N/A Snow Light Snow
3:36 PM 33.1 °F 19.3 °F 25.7 °F 74% 29.75 in 3.0 mi WNW 28.8 mph 48.3 mph N/A Snow Light Snow
3:56 PM 33.3 °F 22.1 °F 25.0 °F 72% 29.77 in 4.0 mi WNW 18.4 mph 34.5 mph N/A Snow Light Snow
4:16 PM 33.3 °F 19.6 °F 24.4 °F 70% 29.79 in 7.0 mi West 28.8 mph 41.4 mph N/A Snow Light Snow
4:36 PM 33.3 °F 20.3 °F 23.9 °F 69% 29.81 in 7.0 mi WNW 25.3 mph 38.0 mph N/A   Mostly Cloudy
4:56 PM 33.3 °F 20.1 °F 23.0 °F 66% 29.83 in 10.0 mi WNW 26.5 mph 39.1 mph N/A   Mostly Cloudy
5:16 PM 32.9 °F 20.4 °F 23.0 °F 67% 29.84 in 10.0 mi WNW 23.0 mph 38.0 mph N/A   Overcast
5:36 PM 32.7 °F 19.6 °F 21.9 °F 64% 29.86 in 10.0 mi WNW 25.3 mph 38.0 mph N/A   Overcast
5:56 PM 32.4 °F 20.0 °F 23.5 °F 70% 29.88 in 10.0 mi WNW 21.9 mph 33.4 mph N/A Snow Light Snow
6:16 PM 32.0 °F 19.5 °F 22.6 °F 68% 29.90 in 10.0 mi WNW 21.9 mph 28.8 mph N/A   Mostly Cloudy
6:36 PM 32.2 °F 19.1 °F 23.0 °F 69% 29.91 in 10.0 mi WNW 24.2 mph 33.4 mph N/A   Overcast
6:56 PM 32.0 °F 19.5 °F 22.8 °F 69% 29.92 in 10.0 mi WNW 21.9 mph 33.4 mph N/A   Overcast
7:16 PM 32.0 °F 19.8 °F 22.5 °F 68% 29.93 in 10.0 mi WNW 20.7 mph 40.3 mph N/A   Overcast
7:36 PM 32.0 °F 19.2 °F 23.0 °F 69% 29.94 in 10.0 mi WNW 23.0 mph 39.1 mph N/A   Mostly Cloudy
7:56 PM 32.0 °F 20.8 °F 22.1 °F 67% 29.95 in 10.0 mi WNW 17.3 mph 28.8 mph N/A   Mostly Cloudy
8:16 PM 32.0 °F 20.5 °F 22.8 °F 69% 29.96 in 10.0 mi NW 18.4 mph 32.2 mph N/A   Overcast
8:36 PM 32.0 °F 19.5 °F 23.2 °F 70% 29.98 in 10.0 mi NW 21.9 mph 28.8 mph N/A   Mostly Cloudy
8:56 PM 32.0 °F 18.9 °F 21.0 °F 64% 29.99 in 10.0 mi NW 24.2 mph 32.2 mph N/A   Overcast
9:16 PM 31.8 °F 19.3 °F 21.2 °F 65% 30.00 in 10.0 mi NW 21.9 mph 29.9 mph N/A   Overcast
9:36 PM 31.8 °F 19.9 °F 21.0 °F 64% 30.00 in 10.0 mi NW 19.6 mph 28.8 mph N/A   Overcast
9:56 PM 31.6 °F 19.3 °F 20.8 °F 64% 30.02 in 10.0 mi NW 20.7 mph 28.8 mph N/A   Overcast
10:16 PM 31.5 °F 20.1 °F 20.8 °F 65% 30.03 in 10.0 mi NW 17.3 mph 25.3 mph N/A   Overcast
10:37 PM 31.5 °F 21.4 °F 21.0 °F 65% 30.04 in 10.0 mi NW 13.8 mph 29.9 mph N/A   Overcast
10:56 PM 31.3 °F 19.9 °F 20.8 °F 65% 30.05 in 10.0 mi NW 17.3 mph 28.8 mph N/A   Overcast
11:16 PM 31.1 °F 20.9 °F 20.5 °F 65% 30.06 in 10.0 mi NW 13.8 mph 23.0 mph N/A   Overcast
11:36 PM 30.9 °F 20.7 °F 20.8 °F 66% 30.07 in 10.0 mi WNW 13.8 mph 23.0 mph N/A   Mostly Cloudy
11:56 PM 30.9 °F 18.7 °F 20.3 °F 65% 30.08 in 10.0 mi WNW 19.6 mph 26.5 mph N/A   Overcast